WMT6EB LROP-EPKK

Flight info

Callsign WMT6EB
Flight time 1h 12m
Altitude 38000
Route SOKRU DCT LARMU DCT KENIN DCT LENOV
Aircraft A20N/M-SDE2E3FGHIRWXY/LB1

Departure

Time 2026-05-04 18:00
Airport Bucharest Henri Coandă International Airport (LROP)

Arrival

Time 2026-05-04 19:12
Airport Kraków John Paul II International Airport (EPKK)
Time Latitude Longitude Altitude Speed Heading
2026-05-04 17:46 44.57131 26.08006 309 ft 0 kts 174°
2026-05-04 17:54 44.57139 26.08004 324 ft 3 kts 174°
2026-05-04 17:54 44.57158 26.08001 324 ft 3 kts 154°
2026-05-04 17:54 44.57172 26.07983 325 ft 3 kts 112°
2026-05-04 17:55 44.57175 26.07965 323 ft 0 kts 82°
2026-05-04 17:56 44.57175 26.07968 323 ft 1 kts 82°
2026-05-04 17:56 44.57176 26.07976 323 ft 1 kts 82°
2026-05-04 17:56 44.57186 26.08010 325 ft 5 kts 62°
2026-05-04 17:56 44.57202 26.08076 326 ft 9 kts 83°
2026-05-04 17:57 44.57209 26.08174 324 ft 12 kts 84°
2026-05-04 17:57 44.57219 26.08297 326 ft 13 kts 84°
2026-05-04 17:57 44.57229 26.08430 326 ft 14 kts 84°
2026-05-04 17:57 44.57265 26.08495 326 ft 7 kts 13°
2026-05-04 17:58 44.57323 26.08492 323 ft 10 kts 354°
2026-05-04 17:58 44.57404 26.08480 325 ft 13 kts 354°
2026-05-04 17:58 44.57505 26.08466 324 ft 16 kts 354°
2026-05-04 17:58 44.57625 26.08456 326 ft 18 kts 12°
2026-05-04 17:59 44.57674 26.08604 326 ft 21 kts 85°
2026-05-04 17:59 44.57711 26.09094 325 ft 86 kts 84°
2026-05-04 17:59 44.57918 26.11818 791 ft 165 kts 84°
2026-05-04 18:00 44.58025 26.13434 1474 ft 171 kts 85°
2026-05-04 18:00 44.58128 26.15213 1966 ft 196 kts 84°
2026-05-04 18:00 44.58289 26.17267 2355 ft 224 kts 82°
2026-05-04 18:00 44.58504 26.19441 3170 ft 227 kts 75°
2026-05-04 18:01 44.59160 26.21493 3865 ft 238 kts 49°
2026-05-04 18:01 44.60553 26.22788 4551 ft 247 kts 15°
2026-05-04 18:01 44.62272 26.22736 5421 ft 253 kts 342°
2026-05-04 18:02 44.65234 26.20054 7474 ft 257 kts 327°
2026-05-04 18:02 44.66683 26.18542 8334 ft 261 kts 329°
2026-05-04 18:02 44.68168 26.16997 9207 ft 267 kts 328°
2026-05-04 18:02 44.69645 26.15419 10085 ft 271 kts 328°
2026-05-04 18:03 44.71183 26.13763 10619 ft 287 kts 328°
2026-05-04 18:03 44.72808 26.12025 11069 ft 305 kts 328°
2026-05-04 18:03 44.74532 26.10180 11745 ft 313 kts 328°
2026-05-04 18:03 44.76293 26.08295 12540 ft 319 kts 328°
2026-05-04 18:04 44.78083 26.06382 13331 ft 325 kts 328°
2026-05-04 18:04 44.79880 26.04463 14084 ft 331 kts 328°
2026-05-04 18:04 44.83617 26.00481 15553 ft 340 kts 328°
2026-05-04 18:05 44.85521 25.98456 16291 ft 344 kts 328°
2026-05-04 18:05 44.87424 25.96435 17012 ft 349 kts 328°
2026-05-04 18:05 44.89384 25.94352 17746 ft 354 kts 327°
2026-05-04 18:05 44.91365 25.92248 18449 ft 358 kts 327°
2026-05-04 18:06 44.95381 25.87980 19805 ft 362 kts 326°
2026-05-04 18:06 44.97401 25.85837 20511 ft 364 kts 326°
2026-05-04 18:06 44.99438 25.83680 21210 ft 365 kts 325°
2026-05-04 18:07 45.01456 25.81545 21888 ft 367 kts 324°
2026-05-04 18:07 45.03510 25.79371 22573 ft 369 kts 324°
2026-05-04 18:07 45.05576 25.77183 23251 ft 371 kts 323°
2026-05-04 18:07 45.07644 25.74989 23862 ft 374 kts 323°
2026-05-04 18:08 45.09741 25.72760 24339 ft 378 kts 323°
2026-05-04 18:08 45.11834 25.70526 24788 ft 382 kts 323°
2026-05-04 18:08 45.13980 25.68230 25246 ft 386 kts 322°
2026-05-04 18:08 45.16127 25.65926 25712 ft 389 kts 322°
2026-05-04 18:09 45.20491 25.61230 26611 ft 396 kts 322°
2026-05-04 18:09 45.24891 25.56485 27474 ft 402 kts 322°
2026-05-04 18:10 45.27131 25.54065 27907 ft 405 kts 321°
2026-05-04 18:10 45.29381 25.51634 28346 ft 408 kts 321°
2026-05-04 18:10 45.31654 25.49175 28762 ft 410 kts 321°
2026-05-04 18:10 45.33939 25.46703 29181 ft 413 kts 321°
2026-05-04 18:11 45.36227 25.44225 29592 ft 416 kts 320°
2026-05-04 18:11 45.38538 25.41719 29979 ft 419 kts 320°
2026-05-04 18:11 45.40870 25.39189 30351 ft 421 kts 320°
2026-05-04 18:11 45.43177 25.36682 30707 ft 423 kts 320°
2026-05-04 18:12 45.45524 25.34126 31057 ft 425 kts 320°
2026-05-04 18:12 45.47875 25.31558 31390 ft 427 kts 320°
2026-05-04 18:12 45.50237 25.28972 31793 ft 426 kts 320°
2026-05-04 18:12 45.52582 25.26397 32240 ft 424 kts 320°
2026-05-04 18:13 45.54913 25.23834 32675 ft 423 kts 321°
2026-05-04 18:13 45.57227 25.21281 33121 ft 421 kts 321°
2026-05-04 18:13 45.61831 25.16185 33940 ft 419 kts 321°
2026-05-04 18:14 45.64149 25.13614 34073 ft 421 kts 322°
2026-05-04 18:14 45.66463 25.11045 34305 ft 421 kts 322°
2026-05-04 18:14 45.68005 25.09333 34525 ft 420 kts 322°
2026-05-04 18:15 45.72603 25.04224 35151 ft 419 kts 322°
2026-05-04 18:15 45.77217 24.99091 35740 ft 418 kts 322°
2026-05-04 18:15 45.79518 24.96529 35980 ft 419 kts 322°
2026-05-04 18:16 45.81831 24.93951 36067 ft 421 kts 322°
2026-05-04 18:16 45.86426 24.88829 36067 ft 420 kts 323°
2026-05-04 18:17 45.93369 24.81074 36060 ft 420 kts 323°
2026-05-04 18:18 46.00276 24.73336 36059 ft 420 kts 323°
2026-05-04 18:18 46.04888 24.68156 36056 ft 420 kts 323°
2026-05-04 18:19 46.11733 24.60446 36054 ft 414 kts 323°
2026-05-04 18:19 46.14545 24.57272 36055 ft 413 kts 323°
2026-05-04 18:20 46.18606 24.52680 36052 ft 412 kts 323°
2026-05-04 18:20 46.23108 24.47581 36050 ft 412 kts 323°
2026-05-04 18:21 46.27632 24.42446 36051 ft 412 kts 323°
2026-05-04 18:21 46.32148 24.37309 36047 ft 412 kts 323°
2026-05-04 18:22 46.36638 24.32193 36048 ft 412 kts 323°
2026-05-04 18:22 46.41140 24.27050 36047 ft 412 kts 323°
2026-05-04 18:23 46.45630 24.21910 36048 ft 412 kts 323°
2026-05-04 18:23 46.50126 24.16753 36048 ft 412 kts 323°
2026-05-04 18:24 46.54626 24.11578 36051 ft 412 kts 323°
2026-05-04 18:24 46.59092 24.06432 36052 ft 412 kts 323°
2026-05-04 18:25 46.63587 24.01242 36053 ft 411 kts 323°
2026-05-04 18:25 46.68077 23.96046 36057 ft 411 kts 323°
2026-05-04 18:26 46.72576 23.90829 36051 ft 411 kts 323°
2026-05-04 18:26 46.77036 23.85647 36051 ft 411 kts 323°
2026-05-04 18:27 46.81519 23.80425 36046 ft 411 kts 323°
2026-05-04 18:27 46.85983 23.75214 36048 ft 411 kts 323°
2026-05-04 18:28 46.90456 23.69982 36047 ft 411 kts 323°
2026-05-04 18:28 46.94909 23.64762 36059 ft 411 kts 323°
2026-05-04 18:29 46.99381 23.59510 36061 ft 412 kts 322°
2026-05-04 18:29 47.03833 23.54267 36064 ft 412 kts 322°
2026-05-04 18:30 47.10504 23.46389 36069 ft 404 kts 322°
2026-05-04 18:31 47.14840 23.41253 36069 ft 402 kts 322°
2026-05-04 18:31 47.19229 23.36043 36070 ft 402 kts 322°
2026-05-04 18:32 47.23572 23.30879 36076 ft 401 kts 322°
2026-05-04 18:32 47.27923 23.25694 36066 ft 401 kts 322°
2026-05-04 18:33 47.32253 23.20524 36071 ft 401 kts 322°
2026-05-04 18:33 47.36596 23.15325 36072 ft 401 kts 322°
2026-05-04 18:34 47.40942 23.10112 36068 ft 401 kts 322°
2026-05-04 18:34 47.45249 23.04933 36060 ft 401 kts 322°
2026-05-04 18:35 47.49571 22.99724 36053 ft 401 kts 322°
2026-05-04 18:35 47.53897 22.94499 36051 ft 400 kts 322°
2026-05-04 18:36 47.58205 22.89286 36051 ft 400 kts 322°
2026-05-04 18:36 47.62521 22.84051 36051 ft 400 kts 322°
2026-05-04 18:37 47.66960 22.79137 36048 ft 399 kts 326°
2026-05-04 18:37 47.71521 22.74414 36046 ft 399 kts 327°
2026-05-04 18:38 47.76064 22.69739 36049 ft 398 kts 327°
2026-05-04 18:38 47.80619 22.65042 36052 ft 398 kts 327°
2026-05-04 18:39 47.85163 22.60347 36054 ft 397 kts 327°
2026-05-04 18:39 47.89709 22.55640 36054 ft 397 kts 327°
2026-05-04 18:40 47.94253 22.50924 36055 ft 397 kts 327°
2026-05-04 18:40 47.98786 22.46210 36057 ft 397 kts 326°
2026-05-04 18:41 48.03298 22.41507 36058 ft 397 kts 326°
2026-05-04 18:41 48.07832 22.36772 36052 ft 397 kts 326°
2026-05-04 18:41 48.10108 22.34392 35910 ft 404 kts 326°
2026-05-04 18:42 48.12445 22.31945 35665 ft 411 kts 326°
2026-05-04 18:42 48.14759 22.29517 35416 ft 411 kts 326°
2026-05-04 18:42 48.17112 22.27045 35167 ft 412 kts 326°
2026-05-04 18:42 48.19463 22.24572 34922 ft 412 kts 327°
2026-05-04 18:43 48.21815 22.22095 34675 ft 412 kts 327°
2026-05-04 18:43 48.24161 22.19622 34424 ft 412 kts 327°
2026-05-04 18:43 48.26481 22.17173 34196 ft 412 kts 327°
2026-05-04 18:43 48.28834 22.14688 34061 ft 412 kts 327°
2026-05-04 18:44 48.31191 22.12195 34052 ft 412 kts 327°
2026-05-04 18:44 48.35848 22.07264 34049 ft 411 kts 326°
2026-05-04 18:45 48.40545 22.02280 34049 ft 412 kts 326°
2026-05-04 18:45 48.45206 21.97326 34048 ft 412 kts 326°
2026-05-04 18:46 48.49898 21.92325 34049 ft 412 kts 326°
2026-05-04 18:46 48.54566 21.87338 34051 ft 413 kts 326°
2026-05-04 18:47 48.59263 21.82310 34049 ft 413 kts 326°
2026-05-04 18:47 48.63934 21.77298 34051 ft 413 kts 326°
2026-05-04 18:48 48.68632 21.72246 34051 ft 413 kts 326°
2026-05-04 18:48 48.73329 21.67182 34052 ft 414 kts 326°
2026-05-04 18:49 48.78007 21.62127 33684 ft 413 kts 325°
2026-05-04 18:49 48.80351 21.59590 33409 ft 413 kts 325°
2026-05-04 18:49 48.82661 21.57087 33128 ft 411 kts 325°
2026-05-04 18:49 48.84976 21.54575 32675 ft 405 kts 325°
2026-05-04 18:50 48.86499 21.52921 32167 ft 407 kts 325°
2026-05-04 18:50 48.89622 21.49527 30963 ft 416 kts 325°
2026-05-04 18:50 48.91949 21.46993 30378 ft 414 kts 325°
2026-05-04 18:50 48.93538 21.45262 30116 ft 409 kts 325°
2026-05-04 18:51 48.95801 21.42792 29801 ft 399 kts 325°
2026-05-04 18:51 48.98041 21.40344 29381 ft 393 kts 325°
2026-05-04 18:51 49.00252 21.37927 28879 ft 388 kts 324°
2026-05-04 18:51 49.02420 21.35555 28380 ft 385 kts 324°
2026-05-04 18:52 49.04585 21.33183 27881 ft 381 kts 324°
2026-05-04 18:52 49.06736 21.30826 27378 ft 378 kts 324°
2026-05-04 18:52 49.08867 21.28488 26904 ft 375 kts 324°
2026-05-04 18:52 49.10988 21.26158 26422 ft 372 kts 324°
2026-05-04 18:53 49.13057 21.23883 25937 ft 370 kts 324°
2026-05-04 18:53 49.15141 21.21591 25456 ft 367 kts 324°
2026-05-04 18:53 49.17212 21.19310 24986 ft 365 kts 323°
2026-05-04 18:53 49.19274 21.17037 24525 ft 363 kts 323°
2026-05-04 18:54 49.21322 21.14778 24077 ft 361 kts 323°
2026-05-04 18:54 49.23349 21.12539 23617 ft 359 kts 323°
2026-05-04 18:54 49.25352 21.10322 23096 ft 357 kts 323°
2026-05-04 18:54 49.27359 21.08100 22571 ft 355 kts 323°
2026-05-04 18:55 49.29363 21.05876 22063 ft 352 kts 323°
2026-05-04 18:55 49.33254 21.01476 21269 ft 342 kts 318°
2026-05-04 18:55 49.34930 20.98931 20869 ft 338 kts 309°
2026-05-04 18:56 49.36297 20.95965 20597 ft 342 kts 299°
2026-05-04 18:56 49.37318 20.92716 20349 ft 342 kts 290°
2026-05-04 18:56 49.37984 20.89220 20108 ft 337 kts 280°
2026-05-04 18:56 49.38311 20.85702 19857 ft 330 kts 278°
2026-05-04 18:57 49.39047 20.82324 19613 ft 336 kts 297°
2026-05-04 18:57 49.40452 20.79492 19322 ft 334 kts 315°
2026-05-04 18:57 49.42317 20.77330 18804 ft 338 kts 325°
2026-05-04 18:57 49.44296 20.75448 18319 ft 338 kts 327°
2026-05-04 18:58 49.46310 20.73593 17814 ft 336 kts 327°
2026-05-04 18:58 49.48306 20.71742 17369 ft 333 kts 327°
2026-05-04 18:58 49.50272 20.69891 16906 ft 331 kts 326°
2026-05-04 18:58 49.52240 20.68020 16437 ft 329 kts 326°
2026-05-04 18:59 49.54158 20.66183 15982 ft 327 kts 326°
2026-05-04 18:59 49.56082 20.64331 15524 ft 325 kts 326°
2026-05-04 18:59 49.57993 20.62485 15187 ft 323 kts 325°
2026-05-04 18:59 49.59919 20.60656 14946 ft 324 kts 326°
2026-05-04 19:00 49.61850 20.58838 14700 ft 324 kts 326°
2026-05-04 19:00 49.63756 20.57027 14391 ft 328 kts 325°
2026-05-04 19:00 49.65717 20.55145 13758 ft 334 kts 325°
2026-05-04 19:00 49.67675 20.53258 13358 ft 327 kts 325°
2026-05-04 19:01 49.69578 20.51412 13100 ft 317 kts 324°
2026-05-04 19:01 49.71466 20.49567 12536 ft 323 kts 324°
2026-05-04 19:01 49.73387 20.47685 11803 ft 328 kts 324°
2026-05-04 19:01 49.75290 20.45822 11151 ft 329 kts 324°
2026-05-04 19:02 49.77227 20.43924 10600 ft 327 kts 324°
2026-05-04 19:02 49.79139 20.42050 10141 ft 322 kts 324°
2026-05-04 19:02 49.81004 20.40218 9859 ft 307 kts 324°
2026-05-04 19:02 49.82762 20.38482 9425 ft 293 kts 324°
2026-05-04 19:03 49.84441 20.36812 9017 ft 281 kts 324°
2026-05-04 19:03 49.86059 20.35197 8643 ft 272 kts 324°
2026-05-04 19:03 49.87618 20.33637 8286 ft 269 kts 324°
2026-05-04 19:03 49.89167 20.32088 7916 ft 270 kts 324°
2026-05-04 19:04 49.90750 20.30508 7536 ft 270 kts 325°
2026-05-04 19:04 49.92315 20.28951 7162 ft 270 kts 325°
2026-05-04 19:04 49.93865 20.27409 6796 ft 271 kts 325°
2026-05-04 19:04 49.95454 20.25829 6408 ft 271 kts 325°
2026-05-04 19:05 49.97049 20.24245 6010 ft 271 kts 325°
2026-05-04 19:05 49.98635 20.22672 5626 ft 271 kts 325°
2026-05-04 19:05 50.00226 20.21094 5249 ft 270 kts 324°
2026-05-04 19:05 50.01788 20.19545 5035 ft 270 kts 324°
2026-05-04 19:06 50.03375 20.17968 5007 ft 271 kts 324°
2026-05-04 19:06 50.04961 20.16391 5004 ft 271 kts 324°
2026-05-04 19:06 50.06545 20.14815 4772 ft 269 kts 324°
2026-05-04 19:06 50.08129 20.13236 4282 ft 270 kts 324°
2026-05-04 19:07 50.09693 20.11644 4040 ft 262 kts 320°
2026-05-04 19:07 50.10860 20.09700 4003 ft 237 kts 293°
2026-05-04 19:07 50.11313 20.07356 4003 ft 216 kts 275°
2026-05-04 19:07 50.11395 20.05083 3912 ft 203 kts 264°
2026-05-04 19:08 50.11195 20.02973 3770 ft 192 kts 256°
2026-05-04 19:08 50.10900 20.00986 3491 ft 188 kts 256°
2026-05-04 19:08 50.10625 19.99011 3222 ft 184 kts 257°
2026-05-04 19:08 50.10365 19.97102 2973 ft 175 kts 256°
2026-05-04 19:09 50.10113 19.95285 2760 ft 166 kts 256°
2026-05-04 19:09 50.09874 19.93578 2537 ft 153 kts 256°
2026-05-04 19:09 50.09665 19.92070 2375 ft 135 kts 256°
2026-05-04 19:09 50.09470 19.90683 2182 ft 130 kts 256°
2026-05-04 19:10 50.09279 19.89305 2014 ft 130 kts 255°
2026-05-04 19:10 50.09086 19.87925 1844 ft 130 kts 256°
2026-05-04 19:10 50.08894 19.86544 1668 ft 130 kts 257°
2026-05-04 19:10 50.08706 19.85193 1491 ft 129 kts 257°
2026-05-04 19:11 50.08516 19.83827 1296 ft 128 kts 257°
2026-05-04 19:11 50.08319 19.82475 1149 ft 129 kts 258°
2026-05-04 19:11 50.08135 19.81109 1023 ft 129 kts 258°
2026-05-04 19:11 50.07950 19.79745 825 ft 128 kts 258°
2026-05-04 19:12 50.07785 19.78553 795 ft 83 kts 257°
2026-05-04 19:12 50.07642 19.78120 793 ft 0 kts 200°
2026-05-04 19:12 50.07637 19.78117 793 ft 3 kts 200°
2026-05-04 19:13 50.07593 19.78103 793 ft 10 kts 179°
2026-05-04 19:13 50.07503 19.78107 793 ft 15 kts 166°
2026-05-04 19:13 50.07486 19.78245 793 ft 16 kts 76°
2026-05-04 19:13 50.07511 19.78425 794 ft 18 kts 77°
2026-05-04 19:14 50.07539 19.78632 794 ft 21 kts 81°
2026-05-04 19:14 50.07569 19.78839 794 ft 18 kts 77°
2026-05-04 19:14 50.07597 19.79043 794 ft 21 kts 78°
2026-05-04 19:14 50.07630 19.79275 793 ft 23 kts 78°
2026-05-04 19:15 50.07651 19.79428 793 ft 15 kts 77°
2026-05-04 19:15 50.07676 19.79606 793 ft 18 kts 79°
2026-05-04 19:15 50.07627 19.79706 793 ft 12 kts 169°
2026-05-04 19:15 50.07546 19.79733 793 ft 12 kts 167°
2026-05-04 19:16 50.07459 19.79763 793 ft 13 kts 167°
2026-05-04 19:16 50.07376 19.79766 793 ft 12 kts 226°
2026-05-04 19:16 50.07310 19.79728 793 ft 10 kts 167°
2026-05-04 19:16 50.07289 19.79736 793 ft 1 kts 167°
2026-05-04 19:17 50.07288 19.79736 793 ft 0 kts 167°